sat.trackr.live / text

‹ back to catalog

OPTUS D1

NORAD 29495 · 2006-043B

PAYLOAD ACTIVE UNKNOWN

§ Identity

Operator
Country
AUS
Launch date
2006-10-13
Launch site
FRGUI
Launch vehicle
Mass (kg)
RCS (m²)
3.98

Purposes: comms

External: N2YO · Heavens-Above · Gunter

§ Orbital elements

Epoch: 2026-09-19T21:06:49.985280Z

Period
1,436.08 min
Inclination
3.2713°
Eccentricity
0.0003644
Mean motion
1.00272865 rev/d
Perigee alt
35,770.9 km
Apogee alt
35,801.7 km
Semi-major
42,164.4 km
B*
0.0000e+0
RAAN
78.4089°
Arg perigee
93.4638°
Mean anomaly
295.6152°
Rev number
7,307

§ Raw data

OPTUS D11 29495U 06043B   26262.87974520 -.00000186  00000+0  00000+0 0  99962 29495   3.2713  78.4089 0003644  93.4638 295.6152  1.00272865 73071

JSON: /api/v1/satellites/29495 · /tle

For live sub-satellite position, see the globe view (requires WebGL).

§ Visibility from observer

Set your observer location to see the next 7 days of passes ≥ 10°. The values pass through the URL so the page stays shareable.

No JS? Fill the form by hand. The geolocation button needs JavaScript.